Location: ??????????
(48.4699°N, 37.9573°E)
Time: 12:40:57
(UTC+00:00)

Meteor 1-21 Rocket - Pass Details

Date: 20 January 2021
Orbit: 834 x 906 km, 81.2° (Epoch: 26 February)

Event Time Altitude Azimuth Distance (km) Brightness Sun altitude
Rises 16:28:56 0° 194° (SSW) 3,371 7.6 -22.9°
Reaches altitude 10° 16:31:20 10° 195° (SSW) 2,439 6.8 -23.3°
Maximum altitude 16:36:51 78° 282° (WNW) 859 4.2 -24.2°
Drops below altitude 10° 16:42:27 10° 9° (N) 2,467 6.5 -25.2°
Enters shadow 16:42:58 - 10° (N) 2,666 6.7 -25.2°
